EW0288 Weather Reports


time (UTC)temp
C
wind
direction
speed
KPH
gust
KPH
rain 1hr
cm
rain 24hr
cm
rain mn
cm
humidity
%
barometer
mb
20260504100106 5 126 3.2 8.0 0.00 0.00 0.00 83 1010.2
20260504081512 6 106 0.0 0.0 0.00 0.00 0.00 76 1010.2
20260504050017 7 294 0.0 1.6 0.00 0.00 0.00 75 1010.8
20260504044551 6 294 0.0 0.0 0.00 0.00 0.00 75 1011.0
20260504043100 6 294 0.0 0.0 0.00 0.00 0.00 72 1011.5
20260504041516 6 294 0.0 3.2 0.00 0.00 0.00 72 1011.5
20260504040014 6 294 0.0 0.0 0.00 0.00 0.00 73 1011.4
20260504034538 6 294 0.0 0.0 0.00 0.00 0.00 73 1011.3
20260504033114 5 294 0.0 0.0 0.00 0.00 0.00 73 1011.1
20260504031522 5 294 0.0 0.0 0.00 0.00 0.00 73 1010.9
20260504030046 5 293 0.0 0.0 0.00 0.00 0.00 72 1011.0
20260504024550 5 294 0.0 0.0 0.00 0.00 0.00 71 1010.9
20260504023012 5 294 0.0 0.0 0.00 0.00 0.00 69 1010.9
20260504021543 6 295 0.0 0.0 0.00 0.00 0.00 66 1010.9
20260504020109 6 295 0.0 0.0 0.00 0.00 0.00 64 1011.1
20260504014513 7 294 0.0 0.0 0.00 0.00 0.00 64 1011.0
20260504013037 7 295 0.0 0.0 0.00 0.00 0.00 59 1010.9
20260504011554 8 294 0.0 0.0 0.00 0.00 0.00 56 1010.7
20260504010119 8 294 0.0 0.0 0.00 0.00 0.00 54 1010.6
20260504004520 9 296 0.0 4.8 0.00 0.00 0.00 53 1010.5
20260504003041 10 289 0.0 3.2 0.00 0.00 0.00 51 1010.5
20260504001510 10 256 1.6 9.7 0.00 0.00 0.00 49 1010.2
20260504000010 11 247 3.2 9.7 0.00 0.00 0.00 45 1010.1
20260503234534 11 276 6.4 19.3 0.00 0.00 0.00 44 1010.0
20260503233057 11 295 4.8 24.1 0.00 0.00 0.00 44 1009.8
20260503231525 12 266 1.6 11.3 0.00 0.00 0.00 41 1009.5
20260503230059 12 279 1.6 14.5 0.00 0.00 0.00 40 1009.3
20260503224550 12 231 3.2 24.1 0.00 0.00 0.00 38 1009.1
20260503223007 12 239 6.4 17.7 0.00 0.00 0.00 38 1009.0
20260503221531 12 261 3.2 16.1 0.00 0.00 0.00 38 1009.0
20260503220120 12 260 6.4 24.1 0.00 0.00 0.00 35 1009.2
20260503214519 12 354 1.6 16.1 0.00 0.00 0.00 35 1009.1
20260503213050 12 314 6.4 24.1 0.00 0.00 0.00 34 1009.0
20260503211517 13 49 4.8 19.3 0.00 0.00 0.00 34 1009.0
20260503210056 13 329 11.3 27.4 0.00 0.00 0.00 35 1009.0
20260503204557 12 226 4.8 16.1 0.00 0.00 0.00 38 1009.1
20260503203021 12 312 4.8 25.7 0.00 0.00 0.00 42 1009.4
20260503201548 12 268 11.3 19.3 0.00 0.00 0.00 37 1009.5
20260503200109 12 220 9.7 24.1 0.00 0.00 0.00 39 1009.5
20260503194523 11 330 3.2 12.9 0.00 0.00 0.00 43 1009.7
20260503193053 11 324 4.8 17.7 0.00 0.00 0.00 43 1010.0
20260503191521 11 317 6.4 29.0 0.00 0.00 0.00 42 1010.2
20260503190022 11 249 1.6 27.4 0.00 0.00 0.00 49 1010.3
20260503184545 11 252 8.0 20.9 0.00 0.00 0.00 44 1010.5
20260503183009 11 344 12.9 29.0 0.00 0.00 0.00 44 1010.6
20260503181533 10 296 4.8 16.1 0.00 0.00 0.00 50 1010.7
20260503180126 10 335 12.9 22.5 0.00 0.00 0.00 48 1010.8
20260503174557 9 237 8.0 19.3 0.00 0.00 0.00 53 1010.9
20260503173039 9 8 6.4 27.4 0.00 0.00 0.00 50 1011.0
20260503171555 9 265 6.4 17.7 0.00 0.00 0.00 51 1010.9
20260503170114 9 275 8.0 27.4 0.00 0.00 0.00 51 1011.0
20260503150108 8 325 9.7 27.4 0.00 0.00 0.00 57 1011.3
20260503130121 6 299 4.8 20.9 0.00 0.00 0.00 71 1011.9
20260503120121 5 358 3.2 9.7 0.00 0.00 0.00 75 1011.5
20260503110118 4 263 3.2 9.7 0.00 0.00 0.00 77 1011.2